{"data":{"norad_id":56062,"epoch":"2026-05-25T05:05:03.191136Z","epoch_age_seconds":50046,"freshness":"FRESH","line1":"1 56062U 23043S   26145.21184249  .00000056  00000+0  11315-3 0  9994","line2":"2 56062  87.9103 233.3329 0002262 105.7411 254.3970 13.16593081155957","mean_motion":13.16593081,"eccentricity":0.0002262,"inclination_deg":87.9103,"raan_deg":233.3329,"arg_perigee_deg":105.7411,"mean_anomaly_deg":254.397,"bstar":0.00011315,"rev_number":15595,"period_min":109.37320124045,"perigee_km":1196.0475101905,"apogee_km":1199.4748465264,"semimajor_km":7575.8981783585,"source":"CELESTRAK","updated_at":"2026-05-25T13:38:22.703239Z"}}